Location: Ashford
(51.1333°N, 0.8833°E)
Time: 12:17:36
(UTC+00:00)

Daily predictions for brighter satellites

Satellite Brightness Start Highest point End
(mag) Time Altitude Azimuth Time Altitude Azimuth Time Altitude Azimuth
Meteor 2-3 Rocket 4.2 16:23:32 10° NNW 16:29:10 71° W 16:34:49 10° S
Cosmos 2084 Rocket 3.5 16:25:31 10° NW 16:29:21 71° SW 16:33:08 10° SE
ISS -3.7 16:27:07 10° W 16:30:29 83° SSW 16:33:50 10° ESE
Cosmos 2279 Rocket 4.2 16:25:54 10° N 16:31:59 50° ENE 16:38:00 10° SSE
Aureole 3 Rocket 3.1 16:27:48 10° N 16:33:05 66° ENE 16:36:55 10° SSE
Meteor 1-27 4.3 16:28:41 10° S 16:34:15 63° E 16:39:47 10° NNE
Spot 4 Rocket 4.4 16:30:06 10° S 16:35:12 70° WSW 16:40:21 10° NNW
ATLAS CENTAUR R/B 2.3 16:33:34 10° NW 16:36:59 56° NNE 16:43:23 10° ESE
Cosmos 1606 2.5 16:34:06 10° S 16:37:43 83° E 16:41:24 10° NNE
Cosmos 2237 Rocket 3.8 16:32:34 10° NW 16:37:49 41° WSW 16:43:02 10° S
Cosmos 2058 Rocket 3.8 16:35:40 10° SSE 16:39:39 33° E 16:43:38 10° NNE
Cosmos 405 Rocket 3.1 16:42:55 10° SSE 16:46:30 43° E 16:50:10 10° NNE
Helios 1A 4.5 16:44:39 10° NE 16:47:28 17° E 16:50:15 10° SE
Cosmos 2150 Rocket 4.0 16:43:01 10° SSW 16:48:11 86° WNW 16:53:26 10° NNE
Cosmos 1140 Rocket 4.2 16:43:43 10° N 16:48:17 30° NE 16:52:50 10° ESE
USA 306 1.1 16:49:45 10° WNW 16:52:01 76° NNE 16:54:02 11° ESE
Cosmos 1606 Rocket 3.7 16:48:07 10° SSW 16:52:35 82° W 16:57:03 10° N
SJ-7 4.3 16:49:35 10° SSE 16:53:34 82° ENE 16:57:37 10° NNW
SMAP 3.1 16:49:46 10° SSE 16:54:22 61° ENE 16:58:58 10° N
Cosmos 1726 Rocket 3.5 16:50:16 10° S 16:54:43 81° E 16:59:10 10° NNE
Cosmos 1500 3.2 16:54:35 10° N 16:58:03 48° ENE 17:01:29 10° SSE
Cosmos-2242 4.2 16:58:53 10° SE 17:02:12 22° E 17:05:03 12° NE
Cosmos 1437 Rocket 2.5 16:58:34 10° NNW 17:02:18 86° E 17:06:02 10° SSE
CZ-2D R/B 3.6 16:58:56 10° S 17:02:36 66° W 17:06:16 10° NNW
SL-8 R/B 4.1 17:02:28 10° W 17:07:11 61° S 17:11:54 10° ESE
Cosmos 2263 Rocket 2.7 17:02:27 10° S 17:07:36 40° ESE 17:12:14 13° NE
RESURS DK-1 4.3 17:07:04 10° N 17:08:56 13° NNE 17:09:17 13° NE
Tsikada Rocket 4.4 17:03:20 10° SSW 17:09:32 65° WNW 17:15:42 10° N
Cosmos 2151 3.0 17:05:39 10° N 17:09:57 89° SW 17:14:12 10° S
Cosmos 2227 Rocket 2.3 17:04:26 10° SSW 17:10:06 79° WNW 17:15:48 10° NNE
CZ-2C R/B 3.1 17:09:47 10° S 17:13:18 62° WSW 17:16:53 10° NNW
Cosmos 1238 Rocket 3.8 17:11:41 10° SSW 17:15:15 41° WNW 17:18:23 10° N
CORIOLIS 4.2 17:12:21 10° SSE 17:17:42 88° WSW 17:23:07 10° NNW
Helios 1B rocket 3.8 17:14:30 10° S 17:18:14 41° W 17:22:00 10° NNW
Cosmos 1603 4.1 17:13:21 10° NNW 17:18:47 42° NE 17:24:08 10° ESE
YAOGAN 1 3.8 17:19:24 20° ENE 17:19:32 20° ENE 17:22:38 10° NNE
Cosmos 2251 Rocket 3.9 17:15:29 10° NNW 17:20:32 41° NE 17:25:36 10° SE
CZ-4B R/B 3.5 17:17:08 10° SSE 17:20:43 89° WSW 17:24:22 10° NNW
Cosmos 1812 3.6 17:18:19 10° SSE 17:21:25 26° E 17:22:20 23° ENE
CZ-4B R/B 3.5 17:18:47 10° SSE 17:23:46 60° ENE 17:28:40 10° N
SL-16 R/B 4.4 17:18:49 10° N 17:23:49 26° NW 17:28:48 10° WSW
Cosmos 407 Rocket 3.8 17:20:20 10° NNW 17:25:14 41° NE 17:30:05 10° SE
ATLAS 2AS CENTAUR R/B 3.2 17:19:21 10° NW 17:25:58 40° NNE 17:30:16 20° E
USA 305 2.5 17:22:20 10° WNW 17:26:10 80° NNE 17:28:38 21° ESE
Meteor 1-31 Rocket 2.9 17:26:17 10° S 17:29:58 71° WSW 17:33:42 10° NNW
Lacrosse 4 Rocket 1.6 17:26:30 10° NNW 17:30:48 53° NE 17:34:32 13° SE
Cosmos 724 4.4 17:24:47 10° SSW 17:30:56 68° SE 17:35:29 18° NE
SL-16 R/B 3.3 17:26:38 10° NW 17:32:05 47° WSW 17:37:28 10° S
Cosmos 1943 3.1 17:40:36 10° NNW 17:46:16 81° ENE 17:51:55 10° SSE
Cosmos 1607 4.0 17:43:23 10° SW 17:49:44 83° NW 17:54:20 21° NE
Cosmos 1812 Rocket 3.7 17:46:20 10° SSE 17:50:30 48° E 17:52:19 29° NE
Radarsat Rocket 3.8 17:48:01 10° SSE 17:53:50 81° ENE 17:59:56 10° NNW
Cosmos 1190 Rocket 4.3 17:49:08 10° NNW 17:54:12 43° ENE 17:56:11 30° ESE
SL-08 R/B 3.7 17:54:02 36° E 17:54:33 37° E 17:58:50 10° SSE
Cosmos 1602 4.3 17:54:01 10° NNW 17:57:40 56° W 18:01:20 10° S
ADEOS 3.5 17:53:15 10° SSE 17:58:24 64° ENE 18:03:35 10° N
Cosmos 2297 Rocket 3.8 17:54:06 10° W 17:58:56 28° NW 18:03:47 10° NNE
Cosmos 2219 3.8 17:54:58 10° SW 18:00:29 55° NW 18:05:03 15° NNE
USA 307 3.1 17:57:58 10° WNW 18:01:47 57° SSW 18:03:12 33° SSE
Cosmos 1666 3.9 17:58:36 10° NNW 18:01:55 39° W 18:05:13 10° SSW
ADEOS Rocket 4.3 18:05:29 20° NNE 18:05:29 20° NNE 18:08:02 10° N
Meteor 1-25 Rocket 4.1 18:00:09 10° NNW 18:05:54 86° ENE 18:11:31 10° SSE
ISS -1.9 18:04:02 10° W 18:06:58 28° SSW 18:08:24 20° S
USA 234 3.2 18:03:40 31° ENE 18:07:04 74° SSE 18:13:36 10° SW
Cosmos 1553 Rocket 4.3 18:02:18 10° N 18:08:18 41° ENE 18:10:27 31° ESE
BREEZE-M DEB (TANK) 3.1 18:09:53 10° WSW 18:10:54 26° SW 18:10:54 26° SW
Cosmos 2344 3.6 18:06:04 10° SSW 18:13:19 53° ESE 18:16:07 35° ENE
COSMO-SKYMED 1 2.4 18:11:55 39° NNE 18:13:28 76° ESE 18:17:48 10° S
Cosmos 2082 4.1 18:12:10 10° SW 18:17:43 62° NW 18:21:20 22° NNE
Cosmos 2026 Rocket 3.9 18:16:52 10° S 18:23:02 67° E 18:29:20 10° NNE
Helios 1A 3.5 18:20:32 22° N 18:23:04 58° WNW 18:27:08 10° SSW
Cosmos 1833 Rocket 4.2 18:19:21 10° NNW 18:22:32 21° NNE 18:22:32 21° NNE
Lacrosse 5 3.5 18:22:31 10° S 18:24:55 21° SSE 18:24:55 21° SSE
Cosmos 2195 Rocket 4.4 18:22:53 10° S 18:29:13 85° E 18:35:32 10° N
Cosmos 1140 Rocket 4.2 18:25:17 10° NNW 18:30:20 52° WSW 18:35:18 10° S
SME Rocket 4.2 18:27:04 10° SSE 18:32:35 82° ENE 18:41:16 10° NNW
CZ-4B R/B 3.1 18:34:38 70° NNW 18:34:38 70° NNW 18:38:25 10° NNW
Cosmos 1092 Rocket 3.8 18:30:12 10° S 18:36:21 84° E 18:42:30 10° N
Cosmos-2242 4.0 18:35:06 10° SSW 18:39:17 46° WNW 18:41:45 22° N
CZ-4B R/B 4.0 18:42:41 37° NNE 18:42:41 37° NNE 18:46:17 10° N
ATLAS CENTAUR R/B 3.8 18:37:25 10° WNW 18:41:56 45° SW 18:50:19 10° SSE
Meteor 1-5 Rocket 4.1 18:41:45 10° NNW 18:47:25 89° W 18:53:14 10° S
Cosmos 676 Rocket 4.4 18:42:11 10° NNW 18:46:18 50° N 18:46:18 50° N
RESURS DK-1 4.4 18:43:38 10° NNW 18:44:58 19° NNW 18:44:58 19° NNW
Cosmos 2227 4.1 18:43:27 10° SSW 18:49:13 86° WNW 18:50:09 65° NNE
Cosmos 2263 Rocket 3.1 18:46:13 10° WSW 18:51:31 43° NW 18:53:56 28° N
Cosmos 1844 Rocket 3.5 18:47:12 10° S 18:50:37 36° S 18:50:37 36° S
Cosmos 2082 Rocket 4.2 18:50:42 10° N 18:52:13 14° N 18:52:13 14° N
Cosmos 2227 Rocket 4.2 18:50:46 10° W 18:55:05 22° NW 18:58:05 15° N
YAOGAN 1 3.6 18:56:27 41° NW 18:56:27 41° NW 18:59:27 10° NNW
Lacrosse 4 Rocket 3.7 19:05:27 10° WNW 19:08:55 24° WSW 19:10:41 18° SW
ATLAS 2AS CENTAUR R/B 2.6 19:10:34 10° NW 19:17:32 81° SW 19:17:43 80° SSW
Cosmos 1818 4.4 19:17:21 10° SW 19:21:04 45° SW 19:21:04 45° SW
USA 234 3.7 19:51:01 56° NW 19:51:01 56° NW 19:56:28 10° W
Cosmos 2344 4.3 20:20:41 10° WSW 20:26:10 44° WNW 20:26:10 44° WNW
